Theta_e
293 294 294 294 294 293 293 293 293 293 294 294 290 290 293 293 287 285 292 294 292 294 296 297 298 299 300 301 302 303 305 306 306 306 305 304 305 306 306 308 308 308 308 309 309 308 308 309 308 308 309 310 311 310 310 310 310 310 311 310 310 310 311 312 312 313 314 315 315 316 317 319 321 323 325 326 325 325 324 325 324 324 323 323 323 323 323
292 293 293 294 293 292 292 292 293 293 293 293 294 293 294 294 292 293 293 293 292 296 297 298 300 301 301 301 303 304 303 304 304 304 303 303 303 304 305 306 306 307 307 308 308 308 308 307 307 306 307 308 308 309 309 309 309 308 310 309 309 308 308 309 310 311 312 314 314 314 315 315 316 318 320 321 322 324 324 324 324 323 323 324 323 323 323
289 292 292 293 292 292 291 292 292 293 293 293 294 294 294 294 293 294 293 291 290 297 300 300 302 302 302 301 301 301 302 303 304 304 303 302 303 303 305 305 306 306 306 307 307 307 307 306 306 307 306 307 308 308 308 307 307 307 308 308 308 307 307 308 309 309 309 310 312 312 314 315 314 315 315 318 320 321 322 323 324 324 323 322 323 322 322
286 291 291 291 292 291 290 290 291 292 291 288 291 289 293 292 289 292 291 288 288 296 300 300 300 300 300 299 300 301 301 302 304 304 303 303 304 304 304 304 305 305 305 305 306 305 306 306 306 306 306 305 306 306 307 306 306 307 308 308 308 308 308 307 307 307 308 309 309 310 311 312 314 315 315 315 316 318 320 321 321 323 323 322 322 323 323
284 290 291 290 290 288 284 285 289 292 292 293 293 294 295 295 295 289 286 288 295 298 299 298 298 299 299 299 300 300 300 302 303 303 303 303 304 304 303 303 303 304 304 305 306 305 305 305 305 305 305 305 307 307 307 308 308 307 306 307 307 308 308 308 307 308 307 308 308 309 310 310 311 313 313 315 315 315 317 320 321 320 320 321 321 322 321
284 289 289 290 284 278 280 292 296 295 293 292 291 290 293 295 295 292 294 294 297 298 298 297 297 298 299 299 301 303 302 301 303 304 304 304 304 304 304 303 303 304 304 305 306 306 305 306 306 306 307 306 307 309 308 307 307 307 306 306 307 306 307 308 308 308 308 308 308 308 309 310 311 310 311 312 314 317 318 318 319 319 320 320 321 321 320
283 287 287 282 276 279 291 295 296 295 295 294 292 293 293 294 295 296 295 296 296 297 298 298 299 300 301 302 302 303 303 303 305 304 304 304 303 303 303 303 303 304 305 304 305 305 306 306 306 307 306 307 308 306 308 307 307 307 307 306 306 307 307 307 308 308 308 308 308 308 309 309 310 310 311 312 312 314 315 316 317 318 319 319 319 320 320
286 283 282 274 277 289 294 295 295 296 294 293 292 290 292 295 294 295 293 294 296 297 297 299 300 300 300 301 301 301 302 303 304 304 304 303 303 302 304 304 305 305 304 304 304 305 306 305 304 305 305 306 306 306 307 306 307 307 306 306 306 306 306 306 307 308 309 309 309 308 308 309 309 309 310 312 313 314 314 314 316 317 317 318 319 319 319
280 282 282 281 288 288 290 288 290 292 289 291 289 284 288 295 295 295 294 295 296 296 297 298 299 300 300 298 298 300 301 302 303 304 303 304 304 305 305 304 305 306 305 304 304 305 305 305 305 305 306 306 306 306 306 306 306 306 306 305 305 306 306 306 306 307 308 308 308 309 308 308 308 309 310 311 312 314 314 314 314 315 316 316 317 318 318
286 282 280 280 280 276 283 292 294 297 296 296 294 291 286 295 295 295 294 294 295 295 296 296 297 299 295 293 294 298 299 300 301 301 302 303 303 303 303 303 303 304 304 304 303 303 304 303 304 304 305 306 306 306 306 306 306 306 305 305 305 306 306 306 307 308 308 307 307 307 307 307 307 309 310 311 311 313 313 313 313 314 315 315 316 317 317
283 281 278 277 275 280 288 289 292 295 296 296 295 288 283 291 294 295 294 294 295 295 294 295 296 294 289 290 294 297 299 299 300 299 300 300 300 301 301 301 301 301 302 302 302 301 302 302 304 305 305 305 304 304 305 305 306 305 305 305 306 305 306 306 306 307 308 308 308 308 308 307 308 308 309 311 311 312 313 314 314 314 314 314 315 316 316
282 281 279 277 281 280 288 291 292 294 295 295 291 277 280 291 294 294 294 292 294 295 295 295 294 292 287 290 293 297 299 300 300 299 299 300 301 300 301 301 302 302 302 301 302 302 301 302 304 304 304 303 303 303 303 304 304 304 305 306 306 307 306 306 307 307 308 308 308 309 309 309 310 310 310 311 311 312 313 312 312 313 312 313 314 310 305
282 281 280 282 283 287 291 290 292 293 295 291 279 275 283 291 294 294 295 294 295 295 294 295 291 294 295 296 297 299 299 298 299 300 301 301 301 300 300 300 299 300 300 300 300 301 302 303 303 303 303 303 302 303 303 303 303 304 306 307 307 306 306 306 306 306 307 307 308 309 309 309 310 310 311 311 312 312 312 312 311 311 312 313 311 304 302
280 281 279 279 282 287 292 293 294 294 289 279 279 288 292 294 293 295 294 294 294 295 294 294 294 295 297 297 298 297 298 298 299 299 300 301 301 301 300 300 299 300 300 301 301 301 302 302 303 304 303 302 302 302 302 302 304 305 306 306 306 306 305 305 306 306 307 308 309 310 310 310 310 311 311 312 312 312 310 311 312 312 309 307 304 302 301
282 281 278 277 274 285 292 292 290 292 283 285 289 292 294 294 294 294 294 294 294 294 293 295 296 296 296 297 297 298 299 299 298 299 299 299 299 299 300 300 300 299 299 299 299 300 301 302 302 302 302 301 302 302 302 303 304 304 304 305 305 305 305 305 305 306 307 308 308 310 310 311 310 310 311 311 312 312 312 311 309 308 306 303 300 299 299
278 278 275 276 283 286 293 291 284 287 289 291 292 292 290 293 293 293 293 294 294 294 294 293 294 295 295 296 297 297 297 298 299 299 299 299 299 299 299 299 299 299 298 298 299 300 300 301 302 302 302 301 301 301 301 304 304 304 304 304 304 304 304 304 305 305 306 307 308 309 309 309 309 309 309 310 310 310 310 309 306 305 304 301 299 298 297
282 280 283 287 289 290 292 293 291 292 293 293 293 293 292 291 292 294 292 292 294 294 293 293 293 293 295 295 296 296 296 297 297 297 298 298 299 299 299 299 299 299 298 298 299 299 300 301 301 302 302 301 301 301 303 304 304 304 304 304 304 303 304 304 305 305 306 307 308 308 309 309 308 307 308 309 308 308 307 307 305 303 302 301 299 298 298
289 290 290 291 290 291 291 292 293 291 292 294 294 293 291 292 293 293 292 293 293 294 294 292 293 293 293 294 295 295 295 296 297 298 298 298 299 299 299 299 300 299 299 299 299 299 300 301 301 302 301 301 300 301 303 304 304 304 303 303 303 303 304 304 305 305 305 306 306 307 307 307 307 308 308 306 306 306 306 305 304 302 301 300 298 297 296
283 278 289 288 288 290 290 290 292 293 293 293 293 292 292 292 293 292 293 293 293 293 293 293 292 293 294 293 294 295 295 295 295 296 296 296 297 298 298 299 299 299 299 299 299 300 300 301 301 302 302 302 302 303 303 304 304 304 304 303 303 303 304 304 305 305 305 304 304 305 307 307 308 308 307 306 305 303 303 303 302 301 299 297 296 296 295
281 281 287 289 290 290 291 290 290 290 292 293 293 292 293 293 293 293 293 294 293 294 292 293 293 293 293 293 293 293 294 294 295 295 295 296 297 298 298 299 299 299 298 299 299 299 299 301 302 302 302 302 302 303 303 303 303 303 303 302 302 303 304 304 304 304 304 296 301 305 306 308 308 306 306 305 303 301 301 301 300 299 297 296 296 296 295
284 287 287 288 289 289 289 290 291 292 292 291 292 293 293 293 292 293 293 294 293 293 293 293 293 292 293 294 294 293 293 294 294 295 296 297 297 298 297 298 298 298 298 298 298 299 299 300 301 301 302 302 303 303 304 303 304 303 302 301 302 304 304 304 303 303 304 304 306 306 307 307 305 304 304 304 302 302 304 303 302 300 296 296 296 296 295
280 280 284 287 281 281 286 289 290 291 292 292 291 292 292 292 292 292 293 293 294 294 294 294 293 292 292 293 294 294 294 294 295 295 296 296 297 297 298 298 299 298 299 299 299 300 300 302 302 302 302 303 304 304 304 304 304 303 303 303 304 303 304 303 303 304 304 304 305 305 305 300 298 295 288 290 298 299 296 291 291 291 293 297 297 297 295
280 285 287 289 288 287 288 289 291 292 293 293 292 292 293 294 294 295 293 292 293 293 294 296 295 294 294 294 294 294 294 295 296 297 298 297 297 298 299 299 299 300 300 299 299 299 300 300 301 302 302 303 303 304 304 304 304 304 304 303 302 304 303 304 302 305 305 305 303 303 302 300 298 295 294 292 288 289 291 290 290 289 289 290 291 291 292
287 288 288 289 288 286 289 292 293 293 294 294 293 293 294 294 294 294 293 293 292 292 293 294 295 294 295 295 295 295 296 296 297 298 298 298 298 298 298 298 297 297 297 298 298 298 300 300 300 301 301 302 303 304 304 304 304 304 304 303 303 303 303 304 303 301 304 304 303 301 300 299 297 294 293 291 291 288 288 289 289 288 288 288 289 289 289
285 291 292 292 292 291 293 293 293 294 294 294 292 292 292 292 293 294 292 292 292 292 291 292 294 295 294 295 296 295 296 296 296 296 295 295 295 296 296 297 297 297 297 298 298 298 299 299 299 299 299 300 302 302 303 304 304 304 304 303 303 303 304 304 304 299 303 301 300 298 298 297 296 295 293 292 291 290 290 288 287 288 287 288 288 288 288
292 292 293 292 292 292 293 292 291 293 293 293 292 292 292 292 292 293 292 293 292 293 292 292 292 294 295 294 294 295 295 295 294 294 295 295 295 295 295 295 296 297 297 297 297 297 297 297 297 298 298 299 300 300 301 301 302 302 303 303 303 304 304 304 304 303 301 300 298 298 296 295 293 293 294 294 292 291 290 290 291 289 288 287 287 287 287
293 292 291 289 288 289 291 288 287 291 291 292 291 291 292 293 292 293 293 293 293 293 293 294 294 294 295 294 294 294 293 293 294 294 294 294 293 293 295 296 296 296 296 295 296 295 294 295 295 296 296 297 299 300 301 301 301 302 302 302 303 295 291 295 302 300 300 298 297 296 295 293 293 293 294 294 293 291 290 289 288 288 289 290 289 288 289
291 291 290 285 284 286 289 291 291 292 292 291 291 291 292 293 293 292 292 292 292 294 295 294 293 293 292 293 292 291 292 292 291 290 291 291 293 294 295 295 295 295 294 294 295 295 295 296 295 295 296 298 299 300 300 300 300 300 301 300 299 298 297 296 297 297 297 297 296 294 294 294 295 293 292 293 293 292 292 292 290 290 290 290 291 288 287
290 290 291 291 290 291 292 292 292 291 291 292 292 292 291 291 291 291 291 291 291 291 291 291 291 291 290 289 289 289 289 289 289 290 291 292 292 293 293 294 294 294 294 293 294 294 294 294 294 294 295 297 298 298 298 298 297 297 297 297 297 297 297 296 296 296 296 296 295 294 291 291 292 293 293 293 293 292 292 292 291 292 291 291 291 290 289
289 290 290 290 291 291 290 289 290 291 290 290 290 289 290 289 287 287 288 288 288 288 288 289 289 288 289 288 289 289 288 288 289 289 290 290 291 291 292 292 293 293 293 293 292 293 293 293 294 293 294 296 296 296 297 297 297 296 296 297 296 296 296 296 296 296 296 295 292 289 291 292 293 293 292 293 293 293 292 292 292 291 290 291 289 290 289
290 290 290 290 290 291 289 289 290 289 289 289 288 288 288 288 287 286 286 287 287 287 287 287 287 287 288 287 288 288 289 288 287 287 287 288 288 288 287 287 287 287 288 289 291 292 293 294 294 295 296 297 297 297 298 297 297 296 296 296 295 290 289 290 291 295 293 292 292 293 293 293 293 292 291 292 291 292 293 293 292 292 292 292 291 292 293
288 289 289 289 289 289 289 289 289 288 287 288 287 287 287 287 286 286 286 286 286 287 287 286 286 286 286 287 287 286 286 286 285 285 285 286 286 285 285 286 288 287 288 288 289 291 292 293 293 295 298 299 299 298 298 298 297 296 296 292 295 295 292 290 292 292 293 292 293 293 293 294 293 293 293 292 292 292 293 293 293 293 293 293 292 296 295
287 286 286 287 287 287 287 288 287 286 287 287 287 288 288 288 288 287 287 287 286 286 285 285 285 285 285 285 285 285 285 285 285 285 285 285 285 285 285 288 289 289 289 290 290 291 291 291 294 296 297 298 299 299 299 298 298 297 296 296 295 295 291 291 291 294 294 294 293 294 294 295 294 295 293 293 294 293 294 293 294 293 293 296 295 293 290
287 286 287 287 287 285 285 285 287 287 287 288 288 288 288 288 288 287 287 287 286 285 284 284 284 285 285 285 285 284 284 284 283 283 283 284 285 285 286 288 289 289 289 290 290 290 290 291 292 294 296 297 297 298 298 297 297 296 297 296 295 295 295 294 294 295 295 294 294 295 294 294 295 294 294 294 294 294 293 293 293 293 294 295 296 292 286
290 290 290 289 289 289 289 288 287 287 287 286 287 287 287 287 287 287 286 285 284 284 284 285 285 285 285 284 284 284 284 283 282 283 283 284 285 286 288 289 289 289 288 287 288 290 290 291 291 293 294 295 295 296 297 297 297 297 296 297 296 296 296 295 296 295 294 295 296 296 295 295 295 293 293 296 295 296 294 294 294 294 294 294 294 295 291
290 290 289 289 290 290 289 288 288 288 288 286 285 285 286 287 286 286 285 285 285 285 285 285 285 285 284 284 284 283 283 284 284 284 284 284 285 286 287 286 286 286 286 285 287 290 291 291 287 287 292 294 295 295 294 295 298 297 296 296 295 295 295 295 295 295 294 295 293 293 293 292 292 294 296 296 295 295 294 294 292 293 293 294 293 293 292
290 290 289 289 290 290 289 289 290 289 288 288 287 287 286 287 286 287 287 285 285 285 285 285 284 284 284 284 285 285 284 284 285 284 284 285 285 285 285 285 285 284 284 283 285 288 290 291 287 287 291 293 293 294 293 287 298 298 297 297 296 295 295 295 296 295 295 295 294 294 293 293 293 293 294 295 294 293 293 293 292 293 293 293 293 293 292
290 290 290 289 290 290 289 290 290 290 290 289 289 288 288 287 287 287 286 286 285 285 286 285 285 285 286 286 285 285 284 285 285 285 285 285 285 284 284 284 283 284 283 283 285 288 288 288 288 290 292 292 292 293 291 286 289 296 296 296 295 295 295 295 294 294 295 294 294 295 294 294 293 293 293 293 293 292 292 292 292 293 293 293 293 292 292
290 291 291 291 290 290 290 290 290 290 290 289 289 289 288 288 287 287 286 285 286 286 286 286 286 286 286 286 285 285 285 285 285 285 285 285 285 284 283 284 284 285 285 285 286 286 287 288 291 291 292 292 293 293 291 288 289 296 296 296 295 294 293 293 292 292 292 293 292 292 292 291 291 291 292 292 292 291 289 290 291 291 292 291 292 291 291
290 290 289 290 288 289 289 288 288 288 290 290 289 288 288 288 288 287 287 286 287 287 287 288 287 286 286 286 286 285 286 286 286 286 286 286 285 284 284 285 285 286 287 286 286 285 285 286 290 292 291 291 292 293 292 290 291 294 295 294 294 293 293 293 293 293 293 293 291 289 291 291 290 290 290 291 292 291 292 291 291 291 291 292 291 291 290
289 289 290 289 288 288 290 288 288 288 289 288 289 289 288 288 287 287 286 287 288 288 287 287 287 287 287 287 287 287 287 287 287 287 287 287 285 284 283 282 285 287 286 288 288 286 285 286 287 290 292 291 290 288 292 290 293 294 293 293 293 292 292 292 292 292 292 292 291 292 292 291 290 290 290 291 291 291 291 291 291 291 291 291 291 291 290
290 290 290 290 290 290 290 290 290 289 289 290 289 289 289 288 287 286 287 287 288 288 288 288 286 287 288 288 288 288 288 288 287 287 286 286 285 285 284 284 287 287 285 287 288 287 287 286 286 286 288 291 290 286 287 292 293 292 292 292 292 292 292 292 291 292 292 292 292 292 292 291 290 290 289 290 290 290 290 290 290 290 290 291 290 290 289
290 290 290 290 290 291 291 290 289 289 289 289 289 289 289 288 288 287 287 287 287 287 288 288 288 287 287 287 287 286 287 287 287 287 286 286 286 286 285 286 287 287 285 288 289 289 288 287 286 286 285 286 288 286 287 291 290 290 290 290 290 291 291 292 292 292 292 291 291 291 291 290 290 290 289 289 288 288 288 288 288 288 288 289 289 288 288
291 290 291 291 291 291 291 290 290 290 289 288 290 290 289 289 288 287 287 287 286 286 286 287 288 288 288 287 286 286 285 286 286 287 286 285 285 285 286 286 286 286 284 287 288 288 288 287 287 285 285 285 285 286 289 290 291 290 290 290 289 289 289 289 290 290 290 290 290 290 289 289 288 288 289 287 287 287 286 287 287 287 287 287 287 286 286
292 292 292 292 292 291 291 290 290 289 289 289 289 289 290 289 288 288 288 287 287 286 286 287 287 288 288 288 287 287 287 287 286 286 285 284 283 282 285 284 284 285 285 285 287 287 287 286 285 284 284 284 285 286 289 289 289 288 288 288 288 288 288 287 288 288 289 290 289 289 288 288 288 287 286 286 285 286 285 286 286 286 286 286 285 285 285
292 292 293 289 292 291 292 291 291 291 290 289 289 288 289 289 289 288 288 288 287 287 287 287 287 287 288 289 289 288 288 287 288 287 286 284 283 283 285 284 285 284 284 284 286 286 286 284 284 284 285 285 286 289 289 289 288 289 288 288 288 287 288 288 288 288 287 287 288 288 288 288 287 287 287 286 286 285 285 284 285 286 285 285 285 284 283
292 292 292 293 293 293 292 292 291 290 290 289 288 288 288 289 289 289 289 289 288 288 288 287 287 288 288 288 287 287 287 286 286 287 288 287 286 285 284 284 284 284 284 285 285 285 285 285 285 284 285 285 286 289 290 290 289 289 288 288 288 288 287 287 287 288 287 287 286 286 285 286 287 287 287 286 286 285 285 284 284 284 284 284 284 283 283
292 293 294 294 293 292 292 291 290 289 289 289 289 287 289 290 289 289 289 289 289 289 288 288 287 287 288 288 288 288 288 287 284 284 287 287 287 286 285 285 284 284 285 284 284 284 283 284 284 284 284 285 288 289 288 288 288 288 287 287 286 286 287 287 286 286 287 287 286 286 286 286 286 286 286 286 285 285 285 284 283 283 283 283 283 283 282
293 292 294 294 293 292 291 290 289 288 290 290 288 289 289 289 289 289 289 289 290 289 289 288 288 288 288 287 287 288 288 287 286 284 286 287 286 285 285 284 283 284 286 287 286 285 284 283 284 284 285 286 288 288 287 287 286 286 286 286 286 285 285 285 286 286 286 286 286 285 286 285 286 286 285 285 285 286 285 284 283 282 283 283 283 283 282
294 294 294 293 292 291 290 290 289 289 291 290 289 290 290 290 289 289 288 288 287 287 288 288 288 288 288 288 288 287 287 288 288 287 286 285 286 286 285 284 284 284 284 287 287 286 284 284 284 284 285 286 286 286 287 286 286 285 285 285 285 285 285 285 284 284 285 285 285 285 285 285 285 284 285 284 283 283 283 283 283 282 282 282 281 281 281
293 293 291 291 292 292 292 292 291 291 291 290 291 290 289 289 289 288 289 288 289 288 287 287 287 288 287 287 287 288 288 287 285 285 287 287 285 283 284 285 284 284 285 285 286 285 285 285 285 285 286 286 285 285 285 285 285 285 284 284 284 285 284 284 284 284 284 285 285 285 285 284 284 284 283 283 283 282 282 282 283 283 282 282 282 281 281
294 294 294 293 292 292 292 292 292 292 292 291 291 290 289 290 289 288 287 284 288 288 288 287 285 287 287 287 285 285 286 287 287 287 285 286 287 287 285 284 285 285 285 285 286 286 286 285 284 283 284 285 285 285 284 284 285 284 284 284 284 284 283 283 283 284 284 284 284 283 283 282 282 282 282 283 282 282 282 282 282 282 282 282 281 281 281
Wind_Speed
15 15 17 17 16 16 16 18 16 17 17 17 16 13 17 14 11 15 14 15 14 11 9 9 9 9 9 9 8 10 7 7 8 8 8 8 8 7 7 7 7 7 7 7 6 6 6 6 6 6 6 7 6 6 6 6 5 5 4 4 3 2 2 1 2 2 2 1 1 2 3 3 3 5 7 8 9 11 11 9 8 10 12 12 13 13 13
15 16 17 16 17 16 17 18 19 18 19 19 19 20 19 20 19 19 18 18 17 16 15 15 13 8 8 8 8 7 9 10 11 10 9 9 8 7 7 7 7 7 7 7 7 6 5 6 5 6 4 4 5 5 5 4 4 3 3 2 2 2 2 2 1 2 3 3 3 3 3 4 4 5 5 6 7 8 8 9 8 9 12 11 12 12 14
13 15 15 15 16 17 19 19 20 20 18 19 19 19 19 19 20 20 20 16 16 14 12 12 12 12 9 9 10 12 11 10 11 10 10 10 9 9 7 7 7 7 7 6 6 6 6 5 4 4 3 3 4 4 4 3 3 2 3 2 2 2 2 2 3 3 3 2 3 4 4 4 5 5 6 5 6 6 7 8 9 10 11 12 11 11 12
12 13 15 17 17 19 20 20 20 19 19 15 17 14 14 14 16 17 16 15 12 10 11 13 14 15 16 13 13 13 11 13 13 13 12 10 9 9 8 7 7 7 7 6 5 4 4 3 4 3 2 1 4 2 3 2 3 3 2 1 2 2 3 3 4 4 3 4 4 4 4 5 5 5 6 6 6 7 7 8 8 8 10 10 10 10 7
12 13 15 16 15 13 13 12 13 17 19 19 19 19 18 17 16 14 15 13 11 12 13 12 13 14 14 13 12 13 13 11 12 13 11 11 9 8 9 8 7 5 5 6 5 3 1 3 1 3 2 1 2 2 2 1 1 2 2 2 3 3 3 4 4 4 5 5 5 5 5 6 6 5 6 6 7 7 8 7 7 8 9 10 10 11 10
11 14 13 12 9 14 10 3 5 9 13 14 18 17 17 17 15 13 14 14 11 11 9 8 12 13 11 8 9 9 8 8 9 10 12 11 9 8 8 6 5 5 3 3 3 3 1 1 3 3 2 1 1 1 1 0 1 2 3 3 3 3 4 4 4 4 5 5 5 5 6 6 6 6 7 7 6 6 7 7 7 8 9 10 10 10 10
12 11 11 11 15 15 9 5 5 3 6 6 9 10 11 12 11 11 13 12 12 14 12 12 14 13 11 8 9 8 7 6 7 9 10 9 9 9 7 5 4 3 2 1 1 0 1 2 2 2 2 0 1 2 1 2 2 3 4 4 4 4 5 5 5 5 5 5 5 6 6 7 7 8 8 7 7 7 7 7 8 8 8 9 9 10 10
10 10 9 12 12 6 6 8 5 4 2 7 7 10 12 7 6 8 11 10 8 7 9 8 9 11 11 10 9 9 8 7 8 10 10 9 7 8 8 6 2 1 1 1 1 1 2 4 3 3 2 2 3 3 3 3 4 4 4 5 6 5 5 6 6 5 5 5 6 6 7 7 7 8 8 7 8 7 7 7 8 8 8 8 8 10 10
11 9 11 14 12 13 10 8 4 3 4 6 6 9 8 2 5 5 8 8 7 6 9 8 7 7 9 9 4 5 5 5 5 3 5 4 3 4 6 8 8 3 3 5 1 1 3 3 4 4 4 5 4 5 5 5 5 5 5 6 6 5 6 6 6 6 6 6 6 6 7 7 8 8 8 8 8 7 8 8 8 8 8 8 8 8 10
9 11 11 9 9 11 6 6 6 5 3 3 3 4 10 4 4 2 7 8 10 8 9 8 10 9 9 7 4 4 4 2 3 6 3 0 1 0 2 2 5 4 3 3 3 3 4 5 6 6 6 5 5 6 6 6 6 7 7 7 6 7 7 7 6 6 6 7 7 7 7 8 8 8 8 7 8 7 8 8 8 8 8 8 7 7 7
8 10 10 9 9 5 7 3 4 4 5 5 5 4 9 5 5 4 8 8 9 6 8 10 8 8 9 6 4 4 1 2 2 2 4 2 1 2 3 4 4 5 3 4 6 7 7 7 6 5 6 7 8 8 8 7 7 7 8 8 8 8 8 8 8 8 7 8 7 7 8 8 8 8 8 8 8 8 8 8 8 8 7 7 6 7 7
10 10 10 10 6 5 4 6 5 7 3 5 6 7 5 6 3 4 6 9 10 8 7 9 9 8 8 3 0 4 5 6 6 4 6 5 6 7 5 5 5 5 6 8 9 8 7 7 7 8 8 8 9 9 9 8 9 9 9 9 9 9 9 9 8 8 8 8 8 8 8 8 8 8 8 8 9 8 8 7 7 7 7 6 4 6 7
11 12 11 8 6 6 4 3 2 2 3 4 7 12 4 4 4 5 7 7 8 8 10 8 8 8 8 8 4 3 6 8 9 8 6 9 10 9 8 8 7 7 9 9 9 9 8 9 9 9 8 9 10 9 9 9 10 10 9 9 10 10 10 10 10 10 10 9 9 9 9 8 8 8 8 8 8 8 8 8 8 8 6 4 6 7 8
10 9 11 10 4 2 7 2 4 5 3 6 8 6 4 8 9 8 10 10 9 10 10 9 10 10 11 11 9 11 11 11 11 11 12 12 12 11 11 10 10 10 10 10 11 11 11 10 10 9 9 10 10 10 10 10 10 9 10 10 10 11 11 11 11 11 10 10 9 8 8 8 9 9 8 9 8 9 8 7 1 3 7 6 7 7 7
8 8 11 8 11 3 6 7 5 1 5 4 7 8 8 7 11 11 11 10 11 11 12 13 13 14 15 13 13 13 13 13 13 13 13 14 14 12 12 12 12 11 11 12 11 12 11 11 11 11 11 12 11 11 12 12 11 11 11 11 11 12 12 12 11 11 11 11 10 8 8 9 9 9 8 8 9 6 3 5 2 2 5 7 7 7 7
8 8 7 5 2 1 3 6 4 3 5 9 11 11 12 11 11 11 11 11 11 11 12 13 13 14 15 16 14 14 14 15 15 15 14 14 14 13 13 13 14 14 14 14 13 13 12 11 11 11 11 12 12 13 14 11 11 11 11 12 12 12 12 12 12 11 11 11 10 10 10 10 10 10 9 8 8 4 4 4 4 6 6 7 8 8 8
4 5 7 3 4 8 8 9 8 9 9 10 11 12 12 12 11 12 11 12 13 13 13 15 16 16 15 16 16 16 16 16 17 17 17 17 17 16 16 16 15 15 15 16 14 14 13 13 12 12 12 13 14 15 13 12 13 13 13 13 13 13 13 13 12 11 11 11 11 10 10 10 10 9 9 6 4 2 3 3 5 7 8 8 8 8 8
10 13 13 14 13 12 11 8 9 11 13 13 13 14 13 12 12 11 12 14 14 15 16 16 16 16 17 17 18 18 17 18 19 19 19 20 19 19 18 18 18 18 17 16 16 16 16 15 15 14 14 14 16 15 14 13 14 13 14 13 13 13 13 12 12 13 13 12 12 12 11 10 10 8 3 3 5 5 5 6 8 9 10 9 8 8 8
9 9 7 9 8 7 10 12 13 13 12 13 12 13 12 12 13 13 13 15 17 17 18 18 18 19 19 20 19 19 18 19 19 19 20 19 19 19 19 18 17 16 16 16 16 16 16 15 14 14 15 14 15 14 14 14 14 14 14 14 13 13 13 13 13 13 13 12 11 11 11 9 6 3 4 5 5 5 6 8 9 7 8 9 9 9 8
9 10 11 13 14 14 14 12 12 12 12 13 12 12 12 13 14 15 16 17 18 17 18 19 20 20 19 19 19 18 17 17 17 18 19 19 18 18 18 18 18 18 17 17 17 17 16 15 14 14 15 15 15 15 15 14 14 15 15 14 14 14 14 13 12 12 12 10 10 10 9 4 3 4 4 4 6 6 7 8 9 10 9 9 9 9 9
10 12 13 13 13 12 12 11 11 12 13 14 15 16 17 17 18 19 19 18 18 18 19 20 20 22 22 21 20 20 18 18 18 17 16 18 18 18 19 18 17 17 17 18 18 18 17 16 15 15 15 15 15 16 16 15 15 16 15 15 15 15 14 13 13 12 11 10 9 9 4 3 5 4 1 5 4 5 5 6 9 10 9 9 9 9 8
8 8 8 10 10 10 11 14 15 15 16 16 16 16 17 17 17 16 16 16 16 16 16 16 17 19 19 20 20 21 19 19 18 18 18 18 18 18 17 16 17 18 18 18 18 17 16 15 15 15 15 14 14 14 14 14 14 14 14 14 14 14 14 13 13 11 10 9 9 4 5 6 7 7 12 14 5 6 6 12 14 11 8 8 8 7 8
9 11 14 13 13 14 14 15 16 16 16 16 17 16 16 16 15 15 15 17 17 16 16 15 16 17 16 18 18 19 17 17 16 16 17 17 16 16 16 16 16 16 16 17 17 17 16 16 16 15 15 15 15 15 15 15 15 14 14 13 12 12 12 12 12 10 2 3 5 6 8 8 8 9 7 10 15 11 10 11 14 14 13 15 16 13 10
13 13 12 13 13 14 15 16 16 15 14 14 15 15 15 15 16 16 17 17 17 18 18 19 18 17 17 16 16 17 16 17 17 16 15 16 16 16 15 15 16 18 18 18 18 19 16 15 15 15 15 15 14 14 14 14 14 14 14 13 12 11 11 10 10 8 5 6 8 9 9 9 10 9 9 8 7 12 14 15 16 16 15 14 14 14 14
12 12 12 12 13 15 14 15 14 13 12 13 14 16 16 17 17 17 17 16 15 17 17 17 17 16 17 16 16 16 16 16 15 16 17 16 15 15 15 16 17 17 17 17 17 17 17 17 17 16 17 17 16 15 14 14 14 14 14 13 14 13 11 10 9 5 7 8 8 9 10 11 9 8 8 8 10 8 10 16 16 14 14 14 13 13 12
12 12 13 13 13 13 12 12 12 12 14 15 16 15 16 16 16 17 17 16 15 15 15 16 17 16 15 15 14 14 15 16 16 15 15 15 15 14 14 15 16 15 16 16 16 17 17 17 15 14 16 16 16 16 15 15 15 16 15 14 14 12 11 7 7 8 9 10 9 9 9 9 9 8 7 8 8 9 11 10 10 11 12 12 12 12 11
9 10 11 13 12 11 10 12 12 14 15 14 14 15 16 17 16 16 15 14 15 15 15 16 15 15 14 12 13 13 13 13 12 13 13 14 14 14 14 14 15 16 16 15 15 15 13 12 12 11 12 13 13 13 14 15 15 15 16 12 5 5 9 6 7 8 8 9 9 9 10 11 10 10 11 10 7 5 7 7 6 5 5 5 6 7 6
9 9 9 10 11 13 13 13 13 13 13 14 14 15 16 16 16 17 17 16 14 12 10 10 10 11 11 10 11 11 12 13 12 11 11 12 12 12 13 14 14 14 12 12 11 7 6 7 7 9 9 9 10 11 11 9 6 5 5 8 9 7 8 10 9 8 9 8 9 11 11 10 10 10 10 8 6 7 7 7 7 7 4 3 3 5 4
10 10 10 11 12 12 12 12 12 13 13 12 12 11 12 13 13 12 11 10 10 11 10 11 10 10 9 10 9 10 10 10 11 12 12 12 12 12 12 12 11 9 7 4 4 6 7 8 8 7 6 6 5 5 5 6 8 8 7 8 8 8 8 9 9 9 9 10 10 10 10 10 10 10 10 9 7 6 6 6 5 5 6 6 5 3 3
11 11 11 11 11 12 12 11 10 9 10 10 11 11 11 11 10 10 10 11 11 10 10 11 10 9 9 10 10 9 10 10 10 9 10 10 10 10 10 8 7 4 2 5 6 7 8 8 7 6 6 5 6 7 7 8 8 9 10 10 9 9 9 10 10 11 11 11 13 13 10 9 9 8 8 7 6 6 5 4 4 4 4 6 6 4 5
12 12 12 10 10 10 10 8 9 10 9 9 9 9 10 10 10 10 10 10 10 9 10 9 9 10 9 9 9 9 8 7 6 6 6 6 5 6 5 4 1 6 6 6 6 7 7 7 7 5 2 3 5 6 9 9 10 11 11 10 10 13 14 15 13 12 11 12 11 11 9 9 8 7 6 5 4 3 4 4 4 4 5 7 7 7 5
14 13 12 8 9 11 10 9 9 8 7 7 8 9 10 11 11 11 11 10 10 10 10 10 10 10 10 10 8 7 5 5 5 5 5 5 5 5 4 3 7 8 8 8 7 7 8 9 9 8 8 8 8 8 8 9 11 12 13 12 11 11 12 16 12 12 11 10 10 9 9 9 9 8 7 6 5 5 5 5 5 6 5 5 2 7 7
12 12 11 11 10 9 8 8 7 6 7 7 6 8 9 10 10 10 11 11 11 11 11 11 11 11 10 8 7 7 6 5 4 6 7 7 6 5 3 4 8 9 9 9 9 9 10 10 8 8 8 8 7 8 9 8 9 10 10 11 10 9 9 11 12 11 9 8 8 9 9 9 8 8 7 7 7 5 5 5 4 3 2 4 8 6 6
9 9 9 9 7 6 7 5 5 5 5 7 8 8 9 10 10 10 11 11 11 12 12 11 12 12 9 8 8 9 8 9 9 9 10 9 6 3 2 7 10 12 12 12 12 11 11 12 12 10 10 11 11 10 11 11 9 9 10 10 11 12 12 11 10 9 9 9 10 11 10 8 8 6 7 6 5 4 4 4 3 1 1 2 7 6 5
8 7 6 5 5 5 5 5 5 6 6 6 7 8 8 8 9 9 10 11 11 11 10 10 10 9 8 8 10 11 12 12 10 10 9 8 5 5 8 12 12 13 14 15 13 12 13 14 13 11 11 11 11 11 10 10 9 10 11 11 12 12 12 12 11 11 11 10 10 8 6 5 5 5 5 5 5 5 4 6 5 4 2 1 3 5 5
6 4 3 3 4 6 6 6 6 6 6 5 4 5 6 8 9 9 10 9 8 9 11 11 11 9 10 11 12 12 12 11 10 9 8 8 8 7 11 13 12 13 11 13 15 13 13 12 12 13 10 10 10 12 11 8 9 10 10 9 9 9 9 9 9 9 9 9 9 8 6 7 6 7 6 6 6 6 4 4 3 3 3 2 2 2 2
3 3 4 4 4 5 6 6 5 5 5 5 5 5 6 8 8 8 8 6 7 8 9 8 9 11 11 9 8 8 9 9 9 10 9 8 7 11 12 13 14 13 12 12 12 11 10 10 10 11 9 8 10 11 13 15 8 9 9 9 9 9 8 8 8 8 9 8 8 7 7 6 4 5 7 7 5 4 4 3 4 3 2 2 2 1 2
2 4 5 5 5 5 5 6 6 5 4 5 5 6 6 6 6 6 5 5 5 6 5 6 6 6 6 7 8 10 10 10 10 10 11 12 11 14 16 16 14 13 12 10 9 10 9 10 10 10 9 9 9 10 13 16 11 9 9 9 9 9 9 8 8 8 8 8 8 7 5 5 4 4 4 6 6 6 5 5 5 3 2 1 1 2 2
4 4 4 4 5 5 5 5 5 5 5 5 5 5 4 3 3 3 3 3 3 3 3 4 4 5 7 9 9 9 10 10 10 10 11 11 10 14 15 13 12 11 9 7 8 9 10 9 8 10 10 11 10 11 12 13 13 10 9 9 9 9 8 8 8 8 9 8 7 7 7 6 6 5 4 6 6 6 7 6 5 4 2 2 2 3 3
3 4 4 4 3 2 4 2 2 2 3 4 5 6 5 4 4 4 5 5 6 6 7 7 8 6 8 8 9 9 10 10 10 10 8 8 8 9 8 10 11 9 8 9 11 9 12 13 11 10 10 10 10 8 9 10 10 9 9 9 9 9 8 8 7 7 7 7 8 8 7 7 7 6 6 6 6 6 5 4 4 4 3 3 4 3 3
3 4 4 4 2 1 3 1 1 2 3 4 5 5 5 5 5 5 5 6 6 6 8 8 7 6 7 8 8 8 9 10 12 12 12 10 11 10 10 11 10 10 11 6 6 8 11 12 11 10 10 10 10 9 7 10 9 9 9 9 8 8 8 7 7 7 7 7 7 7 7 7 6 6 6 6 6 5 5 4 4 3 4 4 4 4 3
3 3 3 3 2 2 2 2 3 3 3 3 3 4 5 4 4 5 5 5 6 6 6 7 8 8 7 7 7 7 7 8 9 10 12 12 11 9 9 9 9 10 16 10 8 9 9 10 11 11 10 9 9 11 10 9 9 9 9 9 8 8 7 7 7 7 7 7 7 7 7 6 5 5 5 4 5 5 5 5 5 5 5 5 4 4 4
4 3 3 3 2 1 1 1 1 2 2 3 3 4 4 4 4 5 5 6 6 6 6 6 6 7 7 7 7 7 7 7 7 8 9 10 12 11 9 8 8 11 16 10 11 9 10 9 10 8 11 9 8 9 9 10 9 9 8 9 8 8 7 7 7 7 7 7 7 7 7 5 4 4 4 4 4 5 6 5 4 5 5 5 5 5 4
6 5 5 5 4 3 2 2 2 1 2 3 3 3 3 4 4 4 5 5 6 6 7 7 7 7 7 8 8 7 7 7 7 6 6 6 8 10 11 9 8 10 15 10 9 9 9 9 9 11 11 11 9 9 9 8 9 8 8 8 8 8 7 7 8 7 7 7 7 7 7 7 5 5 6 4 4 5 5 4 4 5 5 5 5 5 5
8 7 7 6 5 3 3 3 2 1 2 2 2 2 2 3 3 3 4 4 5 6 6 6 7 7 6 6 7 7 7 7 8 7 6 6 7 8 9 9 9 9 10 11 8 9 9 9 11 14 11 12 8 8 8 8 8 8 8 8 7 7 7 7 7 7 7 7 7 7 6 6 5 5 5 6 7 5 5 5 5 5 5 5 6 6 6
8 8 8 8 7 6 5 2 2 2 3 3 3 2 1 2 2 3 4 4 4 5 6 6 6 7 7 6 4 5 7 7 7 8 8 7 7 6 6 7 7 8 10 10 9 9 9 12 13 14 14 13 10 8 8 8 8 8 8 8 8 8 7 7 7 7 7 7 7 5 6 5 5 5 5 5 5 5 5 5 6 6 5 6 6 6 5
8 8 9 9 8 8 5 4 4 4 3 3 2 2 2 1 2 2 3 3 4 4 5 5 6 6 7 7 7 5 5 5 6 7 6 6 6 5 5 5 6 6 8 9 8 9 8 9 11 13 12 10 11 8 8 8 8 8 8 8 7 7 7 7 6 7 7 7 7 7 7 6 5 6 6 5 5 5 5 5 5 5 5 6 5 6 6
10 10 10 9 10 8 7 6 6 5 5 3 1 3 2 1 1 1 2 2 3 4 4 5 5 6 6 6 7 7 7 4 4 6 6 5 6 6 6 6 8 8 1 8 9 11 13 13 13 13 11 8 8 9 9 9 8 8 8 8 7 7 6 5 4 4 5 6 6 6 5 4 6 6 5 5 5 5 5 5 5 5 5 5 5 5 6
10 10 9 9 9 8 8 7 6 5 5 4 4 3 3 3 3 2 2 2 2 2 3 4 4 4 5 6 6 6 7 7 6 4 5 5 6 5 5 6 7 9 5 6 6 7 8 10 11 12 11 10 8 8 8 8 8 8 7 6 6 6 6 6 5 5 4 5 5 5 5 5 5 5 4 4 4 4 5 5 5 4 4 5 5 6 5
9 9 8 9 9 9 9 7 6 6 4 4 4 3 4 3 4 3 2 2 3 1 2 3 3 4 4 4 5 5 6 6 5 6 6 6 5 5 5 6 6 7 7 6 6 6 5 4 7 8 8 7 8 7 7 7 7 7 6 7 6 6 7 7 7 7 6 5 5 5 4 4 4 4 4 4 4 4 4 3 3 2 1 3 3 4 5
9 9 11 11 10 9 9 8 7 6 5 5 4 4 4 4 1 2 1 0 2 2 3 3 3 3 3 4 4 4 4 5 5 5 3 4 5 5 4 4 6 5 5 5 5 5 5 6 6 7 6 6 6 7 6 6 5 6 6 6 6 6 5 6 5 5 5 5 4 4 4 4 4 4 3 3 3 4 4 3 3 4 4 4 4 4 4
10 9 9 9 9 9 9 8 7 5 4 5 5 5 5 3 3 4 4 0 3 2 2 3 3 3 3 4 4 4 4 4 2 3 3 3 3 2 3 1 3 4 4 4 4 5 4 5 7 8 8 6 5 4 6 6 6 5 5 6 6 6 6 5 5 4 4 4 3 4 4 4 3 2 2 2 3 3 3 3 4 4 4 4 4 5 4
Wind_Direction
268 273 281 281 281 280 281 281 279 273 268 265 265 264 260 261 262 271 287 291 291 295 294 308 271 239 227 247 227 226 210 186 190 184 177 185 179 165 157 135 131 129 121 107 99 99 96 100 92 85 93 96 87 79 69 73 68 68 64 48 52 54 66 37 7 336 343 344 291 270 265 276 251 229 228 233 247 245 245 241 237 241 245 244 245 237 233
263 258 252 253 259 266 271 265 257 255 256 258 261 262 264 266 264 264 271 276 278 277 272 273 275 287 283 238 238 234 224 212 213 203 209 207 208 197 171 156 136 123 119 118 110 94 75 65 72 83 81 85 94 95 82 73 73 58 70 39 27 20 357 39 345 330 321 313 304 326 303 277 263 261 260 256 248 244 245 250 248 245 246 249 241 241 239
276 279 285 282 274 275 267 263 260 258 260 264 260 261 258 260 262 266 269 274 274 275 285 284 284 279 264 265 244 236 238 230 223 218 217 225 223 219 186 160 147 135 128 118 110 103 98 88 81 77 54 82 87 87 83 70 81 44 41 9 5 348 342 345 327 304 300 305 302 290 304 300 291 282 277 276 269 269 257 242 244 247 246 242 241 242 240
269 269 272 273 275 267 264 263 262 259 259 259 259 262 268 274 274 277 283 276 272 278 269 260 257 257 259 249 245 237 237 228 230 229 228 228 219 215 201 178 166 151 134 122 105 95 92 94 101 94 78 350 91 63 73 11 38 26 26 332 332 321 321 321 313 317 316 308 297 303 295 287 289 291 295 290 279 264 261 254 242 241 244 243 246 241 233
268 271 274 276 279 293 284 266 268 275 271 272 272 268 267 260 265 267 265 271 284 280 275 290 289 276 273 264 262 260 244 244 238 232 229 224 211 210 207 196 167 147 134 118 107 95 114 85 63 56 32 34 57 28 34 28 60 343 321 333 326 325 312 314 319 315 310 303 302 298 296 296 303 296 277 272 272 273 263 256 256 247 242 236 234 238 232
273 278 277 281 268 253 256 10 333 290 269 261 257 258 261 268 266 270 280 278 294 315 315 289 283 287 286 302 314 317 293 253 242 245 239 235 215 202 200 183 164 144 124 104 92 82 39 80 33 360 324 7 49 174 255 334 328 317 318 302 296 304 305 301 304 303 294 295 294 292 290 286 283 282 277 273 273 264 264 259 248 249 245 240 237 231 230
271 277 274 265 256 252 270 275 293 339 303 309 291 285 278 277 276 290 294 290 284 276 289 310 309 289 275 287 272 268 266 276 269 251 247 228 204 189 189 179 123 105 107 116 118 145 264 23 313 259 245 50 287 282 208 266 292 295 286 299 301 295 293 298 298 293 289 293 294 296 295 290 284 279 280 276 270 266 259 250 247 245 243 241 235 229 225
270 263 253 252 252 285 257 249 200 210 287 261 272 272 266 260 291 301 292 287 299 296 285 290 303 305 298 283 270 279 273 243 243 245 239 227 195 196 192 163 113 279 309 347 285 304 1 274 281 296 307 296 277 274 291 273 265 266 283 289 288 290 296 295 290 289 285 285 287 285 284 283 281 283 281 276 269 266 264 260 253 247 244 242 235 228 225
258 257 255 258 283 272 232 224 291 303 264 307 314 287 296 8 290 325 316 297 279 303 299 296 275 298 304 271 257 57 39 28 354 334 350 10 221 227 249 234 203 175 263 250 265 310 277 299 295 294 305 299 288 281 277 281 280 281 282 281 283 286 280 282 284 286 284 278 276 280 281 280 278 277 278 279 274 266 264 258 254 249 248 245 242 236 226
249 262 263 259 251 251 252 66 95 47 35 3 346 296 284 193 256 345 319 309 297 273 278 283 310 314 289 274 233 128 98 103 56 0 30 134 248 188 173 360 303 261 240 287 279 281 286 279 278 274 268 263 266 269 267 266 270 267 269 275 281 284 286 286 286 279 277 280 282 281 282 280 283 282 278 277 275 266 260 263 257 250 250 250 252 245 227
246 247 254 255 263 276 62 97 76 54 31 24 316 281 266 65 337 34 334 326 301 301 319 309 298 284 279 280 9 24 258 161 197 259 262 276 332 327 279 264 277 288 295 299 299 291 277 271 271 278 276 275 272 267 262 258 257 264 270 276 275 277 283 288 286 285 282 284 284 282 280 281 281 279 275 272 272 268 262 257 259 263 253 247 242 239 235
250 255 251 253 242 265 104 40 6 46 354 14 287 284 277 79 329 345 324 334 320 319 317 320 302 287 283 340 144 337 321 284 309 279 280 279 272 272 287 282 276 302 309 287 274 273 272 274 276 271 271 267 266 267 267 266 261 261 266 268 272 275 276 277 278 276 274 271 272 273 276 278 277 275 275 273 269 267 269 265 263 262 256 238 173 115 92
247 243 254 262 253 85 40 76 28 2 346 307 271 258 352 56 295 312 298 297 301 312 307 299 290 298 292 304 327 282 240 257 267 271 273 276 276 285 295 299 325 296 287 285 286 285 284 283 279 271 267 268 265 262 262 263 263 262 264 267 268 272 275 275 274 274 274 274 274 275 276 276 274 273 270 268 265 261 261 259 265 267 250 234 133 107 104
247 252 257 250 268 37 322 15 307 287 267 249 256 22 301 289 309 312 312 310 305 292 288 292 291 292 298 294 284 286 294 288 284 282 282 279 281 287 290 293 287 281 279 281 280 276 271 268 268 266 264 262 263 264 262 260 263 267 266 268 269 271 271 269 268 269 269 268 270 272 276 275 273 267 265 263 262 259 254 252 247 77 87 97 103 98 100
255 256 263 263 255 72 348 359 290 298 259 292 9 314 309 313 301 303 299 294 295 295 291 291 289 292 292 287 290 296 294 285 280 279 282 282 283 285 288 288 283 283 281 279 279 280 278 275 274 273 272 268 267 267 264 265 267 267 269 268 268 270 270 272 272 270 268 265 262 261 262 262 261 261 259 260 257 249 256 231 162 130 121 113 110 114 116
261 254 246 266 27 131 335 353 309 338 320 325 317 312 295 304 302 298 298 292 294 301 295 290 297 300 296 287 284 280 277 278 281 279 277 283 286 288 289 291 294 293 289 285 282 279 277 275 273 272 270 270 269 269 269 273 272 271 270 268 267 268 267 269 271 268 266 263 260 257 258 258 258 253 250 252 259 250 228 201 197 204 181 137 130 138 140
293 280 286 309 282 307 304 292 292 285 297 297 296 290 286 292 296 295 289 293 292 293 299 301 295 287 282 289 293 288 281 280 281 282 283 281 283 283 281 279 285 289 285 284 283 282 282 281 279 274 271 270 270 267 268 267 266 265 263 262 261 260 263 264 263 262 261 261 262 263 264 263 264 261 258 253 236 177 208 194 178 189 176 159 146 142 137
277 271 274 288 290 291 304 311 301 297 291 291 291 291 292 287 284 288 290 293 297 294 290 287 283 284 294 291 285 283 288 286 283 283 286 284 284 283 284 286 284 283 286 289 287 284 282 280 278 277 274 271 269 267 265 262 263 263 262 260 260 261 262 262 261 263 264 263 262 262 262 263 266 269 274 169 217 211 203 205 198 190 173 164 150 136 137
288 275 283 277 290 292 282 289 291 288 289 290 293 290 288 294 300 298 298 294 292 290 288 283 283 282 281 280 277 277 275 275 277 279 276 276 274 279 284 285 290 288 284 282 283 284 283 282 279 277 276 272 271 272 268 265 262 263 265 260 258 257 257 260 262 263 266 266 266 263 263 261 261 255 201 205 208 207 201 199 185 175 161 155 146 146 136
264 274 287 294 292 289 290 291 294 294 294 295 297 303 301 296 292 290 289 289 285 285 284 286 285 284 280 279 281 279 278 279 282 279 279 282 287 284 284 288 287 285 286 286 286 284 282 283 283 283 280 276 274 272 270 265 263 261 257 258 259 257 256 256 259 259 257 258 263 266 263 257 241 211 195 195 190 178 193 186 174 166 159 149 147 148 136
288 290 285 284 297 300 295 289 290 301 312 313 309 304 301 300 298 294 291 290 292 293 292 290 288 288 285 282 281 281 283 281 277 279 284 287 288 291 288 286 288 287 286 285 285 286 286 286 283 279 276 274 270 269 269 269 266 262 261 258 254 254 254 256 255 253 257 262 258 252 232 117 70 41 251 197 165 177 167 183 172 157 136 128 129 125 136
278 286 302 329 310 300 300 302 306 310 309 302 301 299 294 292 291 293 295 292 290 288 284 285 283 281 282 281 279 279 280 282 288 290 288 286 286 285 286 288 287 286 286 287 290 290 290 290 288 285 282 277 275 271 269 268 266 264 259 253 248 247 248 250 250 249 248 251 252 215 132 118 99 75 40 41 70 131 101 92 81 69 85 116 110 94 72
295 307 313 313 304 296 291 301 306 305 304 305 307 306 306 305 305 305 303 303 303 300 298 294 291 288 285 286 285 282 282 283 284 283 286 289 290 290 294 295 294 295 296 295 291 289 288 289 287 285 282 281 277 272 268 264 262 259 256 252 250 247 242 244 246 248 238 14 87 135 145 143 125 109 92 49 35 54 94 91 85 79 77 81 89 97 102
292 296 301 305 300 296 302 304 305 307 311 313 312 313 312 309 308 306 304 304 303 302 300 297 291 290 291 290 287 286 284 283 287 294 298 303 303 303 302 299 296 294 293 292 291 290 291 289 287 284 282 279 276 274 270 265 260 258 253 251 248 246 243 242 237 231 213 172 148 158 157 151 129 125 118 112 79 41 57 74 73 76 78 79 86 96 104
298 306 302 302 302 302 303 304 307 312 317 320 315 312 312 311 307 308 304 300 296 297 297 296 297 294 290 288 288 288 292 296 298 302 305 301 297 296 295 294 293 291 290 292 293 293 293 293 290 288 284 280 279 277 275 271 268 262 256 249 245 243 242 238 230 184 138 136 148 141 142 140 126 125 129 121 112 102 63 62 67 69 75 80 79 81 83
306 308 311 307 300 298 302 307 308 317 321 320 314 311 312 309 306 302 296 294 295 294 292 292 292 290 292 293 294 295 296 295 302 307 296 295 296 298 297 296 296 296 296 295 295 294 293 297 300 297 285 278 274 271 269 264 259 255 253 250 244 244 238 216 193 176 157 144 141 143 134 117 112 110 94 97 113 121 122 117 92 69 57 67 80 83 79
320 320 319 313 305 306 314 317 315 316 312 312 312 310 309 308 308 302 298 294 292 289 288 291 296 301 301 302 309 315 312 313 309 299 297 298 297 292 290 290 292 294 296 296 296 303 311 305 292 284 281 276 267 258 252 248 244 242 238 237 225 111 119 141 164 143 136 134 138 132 121 126 132 128 117 112 98 96 107 107 112 124 133 95 62 64 104
328 325 325 315 310 308 309 309 307 306 308 312 315 311 310 312 308 300 294 298 307 317 325 338 340 339 331 331 328 316 312 304 302 300 294 289 290 293 295 298 300 301 304 307 304 319 335 333 320 304 300 299 292 277 266 264 254 232 203 165 142 136 125 123 121 126 130 133 130 130 136 127 113 106 113 116 137 133 116 114 121 130 136 137 139 84 78
331 325 321 311 307 305 304 305 308 318 322 320 318 319 327 335 333 338 348 355 347 339 340 339 336 332 328 322 315 307 302 300 298 299 299 300 301 301 300 300 300 305 313 331 30 24 10 2 357 349 346 354 30 62 95 129 125 134 136 133 128 127 128 125 125 122 122 126 126 119 107 107 115 125 133 136 131 125 122 124 131 138 136 145 141 138 193
325 320 319 315 310 311 311 318 325 327 328 340 341 337 340 338 341 345 347 348 348 343 339 334 331 328 327 320 317 313 310 309 310 309 304 303 303 305 303 304 302 323 24 53 27 6 6 17 17 20 18 29 58 67 70 78 86 91 93 97 100 109 112 114 115 118 119 116 114 109 110 115 125 130 129 124 126 128 137 144 151 152 146 154 175 182 187
320 318 314 315 316 319 325 334 331 338 349 352 349 342 344 347 346 346 346 343 343 341 337 337 336 335 337 337 328 321 320 329 331 326 326 328 329 326 324 323 45 73 57 35 16 6 2 12 23 48 61 90 100 100 91 86 87 89 90 89 91 98 108 118 118 118 117 118 117 121 126 129 123 118 119 127 138 145 151 159 175 178 178 174 194 202 190
321 322 323 331 335 337 339 342 343 360 3 5 2 2 6 6 4 359 358 358 356 355 356 358 358 354 349 346 352 348 339 334 330 336 337 340 351 349 334 47 71 65 56 39 23 10 7 17 16 2 13 31 53 70 81 87 88 92 95 98 99 94 89 95 99 103 109 112 118 126 131 133 137 141 148 155 164 175 174 178 191 194 176 191 149 73 55
327 325 330 338 340 337 337 354 4 13 21 25 28 26 23 22 21 20 18 16 16 15 13 8 360 353 348 356 14 10 353 326 329 1 0 360 359 353 350 59 64 61 52 44 34 26 20 8 357 3 17 28 39 62 72 79 94 100 102 99 93 91 94 99 106 112 117 133 144 148 146 145 144 152 152 168 174 180 180 180 188 176 185 111 81 72 57
323 315 323 334 335 337 343 15 36 43 40 37 39 33 23 20 21 23 18 17 16 12 7 359 353 351 352 356 15 26 21 24 19 11 3 4 1 345 44 69 65 59 51 41 35 30 23 12 5 3 11 19 24 32 48 55 66 92 106 104 104 107 114 125 137 146 152 143 136 136 134 139 147 145 153 176 178 175 161 179 155 145 130 91 84 84 76
315 328 355 2 18 39 51 57 54 52 48 42 27 26 22 19 17 21 15 14 12 359 351 348 347 343 349 8 24 27 31 29 19 14 10 3 2 27 59 59 59 53 46 37 30 29 22 19 11 10 19 27 27 22 25 46 66 85 85 99 109 120 125 132 127 124 118 114 114 107 100 101 98 116 140 137 116 88 74 49 57 48 51 64 91 105 101
339 8 43 40 67 81 76 74 73 69 66 52 34 19 21 21 21 20 16 13 3 356 353 347 343 349 10 18 23 22 24 23 22 15 9 10 19 40 50 46 41 41 36 35 24 20 21 19 8 11 26 30 34 31 13 354 65 67 85 84 83 77 78 80 76 73 68 74 72 74 71 64 58 58 68 74 74 79 80 68 61 58 57 46 39 40 122
7 73 89 97 99 103 91 78 67 61 54 47 39 29 25 22 18 16 14 11 2 344 339 338 343 358 4 7 16 20 21 19 22 26 26 24 24 44 46 45 39 34 31 32 13 6 5 4 4 16 23 27 31 26 15 2 43 64 66 66 71 72 76 77 76 79 79 82 88 92 94 91 85 78 70 71 69 63 66 73 71 68 73 63 53 42 25
49 101 110 108 109 89 65 51 42 49 46 46 44 38 28 20 13 11 13 6 349 331 327 332 338 343 358 6 17 21 18 16 19 25 30 33 32 48 45 43 36 30 30 23 7 7 358 343 10 36 32 35 33 30 17 11 19 54 62 58 62 62 62 66 72 77 78 76 72 73 76 79 83 78 73 70 68 60 56 56 44 35 40 35 55 52 32
117 111 107 94 81 73 63 40 26 17 23 41 47 57 56 40 33 11 4 3 0 358 4 9 18 29 27 29 27 23 20 17 18 22 28 31 33 51 51 41 38 33 32 19 23 17 356 349 39 38 43 44 40 37 24 14 23 56 58 63 60 66 64 68 67 67 64 64 65 70 70 65 66 66 67 67 73 81 71 58 47 26 22 29 23 37 24
95 104 108 92 73 65 66 54 37 20 10 23 29 26 27 33 22 18 13 12 11 7 10 13 25 35 36 37 37 37 30 27 26 26 26 31 34 40 45 36 24 18 13 24 37 33 17 4 32 50 43 37 33 40 37 21 37 55 57 60 60 58 58 61 65 71 80 87 89 83 78 71 66 65 65 70 73 65 62 70 56 37 41 42 38 43 27
124 133 129 122 123 109 86 77 87 99 70 33 29 40 37 33 28 18 13 10 6 14 31 18 11 30 35 34 40 48 49 39 35 32 31 35 42 42 42 36 14 7 358 356 48 40 37 36 28 32 45 42 32 6 30 40 49 58 58 58 59 60 61 57 63 68 73 70 69 72 76 78 75 71 64 60 56 57 62 59 57 53 49 38 36 30 26
155 151 150 153 152 133 109 100 72 32 27 53 63 59 55 44 35 28 23 14 9 13 24 40 27 19 35 39 39 39 55 65 62 52 44 43 41 43 46 47 23 13 346 360 57 48 39 35 31 25 17 30 42 11 16 48 53 55 58 55 58 57 63 63 68 67 66 66 70 73 71 73 73 73 69 67 63 62 57 48 43 34 24 29 32 30 24
181 187 189 196 157 148 154 91 79 83 67 52 48 54 49 37 31 34 30 26 18 13 17 25 32 38 42 45 46 42 35 36 59 73 71 61 50 43 38 31 20 15 350 24 37 44 41 44 28 23 359 2 11 11 43 57 57 59 60 61 60 58 59 56 59 62 64 66 63 62 63 67 70 71 67 62 58 52 46 46 42 37 33 27 26 21 14
186 204 206 207 195 169 217 211 151 150 99 71 55 54 50 49 41 36 31 25 24 21 16 21 21 28 40 44 46 45 40 31 29 36 55 69 61 47 32 28 20 16 359 13 43 40 41 35 26 358 352 1 11 37 47 54 59 62 63 63 64 60 55 49 52 56 60 61 64 68 67 61 58 56 53 58 61 57 53 48 45 41 35 32 28 23 20
200 204 210 208 201 189 211 212 202 120 98 102 65 28 32 57 54 38 32 35 30 26 27 24 23 18 25 41 50 50 49 45 38 30 38 42 47 44 29 30 29 27 17 5 38 43 41 24 1 353 355 352 357 40 52 56 57 59 59 60 60 65 64 59 55 55 58 66 68 65 62 62 66 67 69 62 58 56 52 48 48 42 41 37 31 26 21
208 206 206 215 215 204 219 197 130 180 161 157 137 115 24 39 51 54 41 38 46 39 38 35 33 28 20 18 46 72 69 57 56 60 61 51 51 51 39 29 32 22 21 29 36 32 31 8 2 2 357 357 3 57 58 54 52 53 54 58 58 55 57 64 65 63 54 53 56 61 66 69 66 64 65 65 62 59 52 39 43 41 37 34 31 26 19
214 212 203 206 214 223 201 199 193 204 202 215 196 124 89 33 15 49 61 52 48 52 54 53 43 38 36 32 20 22 42 63 59 47 58 77 88 78 75 56 39 25 33 47 42 36 19 12 3 360 358 10 31 46 49 53 56 58 51 50 51 57 55 54 55 65 70 74 76 74 65 62 68 78 76 73 66 55 52 43 39 33 31 26 25 26 22
211 209 203 202 212 206 194 201 199 208 211 231 108 128 158 163 129 81 74 73 74 75 66 61 62 54 41 43 50 42 24 23 61 54 37 46 59 58 45 29 4 334 123 100 69 41 21 10 5 358 355 8 50 51 48 43 43 46 55 55 52 49 50 53 59 61 62 61 63 65 66 71 72 70 67 64 61 57 51 45 40 32 26 21 24 18 18
209 210 200 202 209 199 199 199 205 212 219 164 183 160 139 166 160 171 161 189 189 131 98 84 77 77 76 60 47 54 57 47 51 60 43 31 40 40 57 53 24 358 33 65 68 65 32 9 14 6 16 30 45 47 50 50 51 51 50 51 57 54 53 50 46 52 63 65 67 67 69 67 65 67 67 61 59 57 52 50 51 37 23 23 23 24 23
205 211 210 206 204 200 196 198 204 213 201 177 198 168 165 203 211 140 118 90 66 12 76 74 71 66 57 58 57 57 53 52 65 76 75 54 44 50 55 41 33 19 18 36 54 66 88 39 43 37 37 47 44 42 47 53 56 49 52 51 54 60 59 64 67 55 56 63 63 67 70 65 64 65 59 56 41 33 28 26 34 74 4 25 32 22 25
205 200 210 210 209 198 197 206 207 207 186 184 197 163 183 233 136 105 126 84 202 135 109 108 91 85 77 71 69 65 68 80 61 25 44 90 91 69 34 67 62 33 38 46 52 51 52 42 28 23 46 54 57 48 37 40 58 64 57 55 51 48 55 54 54 56 54 50 59 61 58 60 52 39 34 43 38 36 30 27 26 31 29 30 32 28 23
211 208 214 213 212 198 196 207 210 198 187 185 193 180 204 227 150 161 126 200 279 127 127 117 110 89 88 100 87 67 51 29 42 86 49 33 34 89 102 64 72 81 53 51 59 65 68 77 69 41 28 36 38 49 61 48 50 55 57 58 60 61 49 42 48 57 56 51 56 62 49 38 41 47 43 38 39 36 26 27 33 37 34 30 32 27 21